Location: *
(2.5500°S, 65.9667°W)
Time: 19:18:04
(UTC+00:00)

Transit 2A Rocket - Pass Details

Date: 26 April 2024
Orbit: 585 x 908 km, 66.7° (Epoch: 19 May)

Event Time Altitude Azimuth Distance (km) Brightness Sun altitude
Rises 01:10:50 0° 338° (NNW) 3,504 8.8 -41.6°
Reaches altitude 10° 01:13:20 10° 338° (NNW) 2,578 8.0 -42.2°
Enters shadow 01:13:42 12° 337° (NNW) 2,441 7.9 -42.3°
